| time (UTC) | temp F | wind direction | speed MPH | gust MPH | rain 1hr in | rain 24hr in | rain mn in | humidity % | barometer mb |
| 20260508181050 | 76 | 329 | 2.0 | 10.0 | 0.00 | 0.00 | 0.00 | 19 | 1011.7 |
| 20260508180550 | 77 | 235 | 4.0 | 9.0 | 0.00 | 0.00 | 0.00 | 17 | 1011.7 |
| 20260508180050 | 77 | 5 | 3.0 | 10.0 | 0.00 | 0.00 | 0.00 | 18 | 1011.8 |
| 20260508175549 | 77 | 315 | 3.0 | 10.0 | 0.00 | 0.00 | 0.00 | 17 | 1011.9 |
| 20260508175048 | 77 | 328 | 3.0 | 8.0 | 0.00 | 0.00 | 0.00 | 17 | 1011.9 |
| 20260508174559 | 76 | 88 | 1.0 | 5.0 | 0.00 | 0.00 | 0.00 | 17 | 1011.8 |
| 20260508174045 | 74 | 10 | 1.0 | 9.0 | 0.00 | 0.00 | 0.00 | 19 | 1011.9 |
| 20260508173544 | 73 | 269 | 4.0 | 9.0 | 0.00 | 0.00 | 0.00 | 19 | 1011.9 |
| 20260508173043 | 72 | 237 | 2.0 | 10.0 | 0.00 | 0.00 | 0.00 | 19 | 1011.9 |
| 20260508172545 | 72 | 203 | 2.0 | 10.0 | 0.00 | 0.00 | 0.00 | 19 | 1011.9 |
| 20260508172042 | 73 | 281 | 3.0 | 7.0 | 0.00 | 0.00 | 0.00 | 19 | 1012.0 |
| 20260508171542 | 72 | 267 | 2.0 | 9.0 | 0.00 | 0.00 | 0.00 | 19 | 1012.1 |
| 20260508171045 | 71 | 293 | 3.0 | 12.0 | 0.00 | 0.00 | 0.00 | 19 | 1012.1 |
| 20260508170540 | 71 | 318 | 4.0 | 8.0 | 0.00 | 0.00 | 0.00 | 20 | 1012.1 |
| 20260508170040 | 71 | 269 | 3.0 | 7.0 | 0.00 | 0.00 | 0.00 | 20 | 1012.2 |
| 20260508165539 | 70 | 199 | 2.0 | 9.0 | 0.00 | 0.00 | 0.00 | 21 | 1012.2 |
| 20260508165040 | 70 | 247 | 4.0 | 10.0 | 0.00 | 0.00 | 0.00 | 21 | 1012.2 |
| 20260508164545 | 70 | 285 | 3.0 | 9.0 | 0.00 | 0.00 | 0.00 | 21 | 1012.2 |
| 20260508164038 | 69 | 295 | 5.0 | 9.0 | 0.00 | 0.00 | 0.00 | 21 | 1012.2 |
| 20260508163539 | 69 | 254 | 4.0 | 10.0 | 0.00 | 0.00 | 0.00 | 21 | 1012.2 |
| 20260508163105 | 69 | 5 | 2.0 | 10.0 | 0.00 | 0.00 | 0.00 | 25 | 1012.3 |
| 20260508162538 | 69 | 273 | 5.0 | 9.0 | 0.00 | 0.00 | 0.00 | 24 | 1012.4 |
| 20260508162039 | 70 | 327 | 4.0 | 8.0 | 0.00 | 0.00 | 0.00 | 23 | 1012.3 |
| 20260508161539 | 70 | 311 | 3.0 | 8.0 | 0.00 | 0.00 | 0.00 | 23 | 1012.4 |
| 20260508161039 | 69 | 360 | 4.0 | 8.0 | 0.00 | 0.00 | 0.00 | 23 | 1012.4 |
| 20260508160536 | 69 | 279 | 3.0 | 8.0 | 0.00 | 0.00 | 0.00 | 24 | 1012.4 |
| 20260508160037 | 69 | 279 | 3.0 | 8.0 | 0.00 | 0.00 | 0.00 | 24 | 1012.5 |
| 20260508155534 | 68 | 327 | 4.0 | 9.0 | 0.00 | 0.00 | 0.00 | 24 | 1012.5 |
| 20260508155035 | 67 | 295 | 4.0 | 10.0 | 0.00 | 0.00 | 0.00 | 27 | 1012.7 |
| 20260508154532 | 66 | 348 | 3.0 | 10.0 | 0.00 | 0.00 | 0.00 | 25 | 1012.6 |
| 20260508154031 | 66 | 242 | 4.0 | 9.0 | 0.00 | 0.00 | 0.00 | 22 | 1012.7 |
| 20260508153532 | 66 | 270 | 5.0 | 8.0 | 0.00 | 0.00 | 0.00 | 23 | 1012.6 |
| 20260508153033 | 65 | 252 | 4.0 | 9.0 | 0.00 | 0.00 | 0.00 | 22 | 1012.6 |
| 20260508152530 | 65 | 236 | 5.0 | 9.0 | 0.00 | 0.00 | 0.00 | 21 | 1012.6 |
| 20260508152031 | 64 | 219 | 4.0 | 10.0 | 0.00 | 0.00 | 0.00 | 22 | 1012.6 |
| 20260508151536 | 64 | 256 | 5.0 | 11.0 | 0.00 | 0.00 | 0.00 | 22 | 1012.5 |
| 20260508151034 | 63 | 236 | 6.0 | 11.0 | 0.00 | 0.00 | 0.00 | 22 | 1012.4 |
| 20260508150530 | 63 | 244 | 6.0 | 13.0 | 0.00 | 0.00 | 0.00 | 23 | 1012.5 |
| 20260508150032 | 62 | 226 | 7.0 | 14.0 | 0.00 | 0.00 | 0.00 | 23 | 1012.5 |
| 20260508145530 | 62 | 242 | 8.0 | 14.0 | 0.00 | 0.00 | 0.00 | 24 | 1012.5 |
| 20260508145029 | 62 | 265 | 9.0 | 14.0 | 0.00 | 0.00 | 0.00 | 24 | 1012.6 |
| 20260508144535 | 61 | 236 | 8.0 | 15.0 | 0.00 | 0.00 | 0.00 | 24 | 1012.6 |
| 20260508144028 | 61 | 240 | 9.0 | 15.0 | 0.00 | 0.00 | 0.00 | 25 | 1012.6 |
| 20260508143528 | 61 | 261 | 8.0 | 14.0 | 0.00 | 0.00 | 0.00 | 25 | 1012.4 |
| 20260508143027 | 60 | 256 | 7.0 | 14.0 | 0.00 | 0.00 | 0.00 | 25 | 1012.5 |
| 20260508142527 | 60 | 231 | 5.0 | 11.0 | 0.00 | 0.00 | 0.00 | 26 | 1012.4 |
| 20260508142026 | 60 | 249 | 4.0 | 10.0 | 0.00 | 0.00 | 0.00 | 26 | 1012.3 |
| 20260508141526 | 60 | 188 | 5.0 | 10.0 | 0.00 | 0.00 | 0.00 | 26 | 1012.4 |
| 20260508141026 | 59 | 258 | 4.0 | 8.0 | 0.00 | 0.00 | 0.00 | 26 | 1012.3 |
| 20260508140525 | 59 | 206 | 4.0 | 10.0 | 0.00 | 0.00 | 0.00 | 26 | 1012.3 |
| 20260508140030 | 59 | 232 | 5.0 | 10.0 | 0.00 | 0.00 | 0.00 | 26 | 1012.3 |
| 20260508135527 | 59 | 238 | 4.0 | 9.0 | 0.00 | 0.00 | 0.00 | 26 | 1012.3 |
| 20260508135024 | 59 | 232 | 4.0 | 11.0 | 0.00 | 0.00 | 0.00 | 26 | 1012.2 |
| 20260508134525 | 59 | 271 | 6.0 | 11.0 | 0.00 | 0.00 | 0.00 | 26 | 1012.2 |
| 20260508134022 | 60 | 234 | 5.0 | 10.0 | 0.00 | 0.00 | 0.00 | 27 | 1012.1 |
| 20260508133523 | 59 | 240 | 4.0 | 10.0 | 0.00 | 0.00 | 0.00 | 28 | 1012.0 |
| 20260508133021 | 59 | 261 | 3.0 | 8.0 | 0.00 | 0.00 | 0.00 | 29 | 1012.0 |
| 20260508132520 | 59 | 263 | 5.0 | 9.0 | 0.00 | 0.00 | 0.00 | 29 | 1012.0 |
| 20260508132020 | 59 | 221 | 5.0 | 9.0 | 0.00 | 0.00 | 0.00 | 30 | 1011.9 |
| 20260508131519 | 59 | 212 | 5.0 | 8.0 | 0.00 | 0.00 | 0.00 | 30 | 1011.8 |
| 20260508131019 | 59 | 211 | 3.0 | 10.0 | 0.00 | 0.00 | 0.00 | 28 | 1011.7 |
| 20260508130516 | 59 | 188 | 5.0 | 10.0 | 0.00 | 0.00 | 0.00 | 26 | 1011.7 |
| 20260508130016 | 59 | 230 | 5.0 | 14.0 | 0.00 | 0.00 | 0.00 | 25 | 1011.6 |
| 20260508125516 | 59 | 244 | 5.0 | 16.0 | 0.00 | 0.00 | 0.00 | 24 | 1011.5 |
| 20260508125016 | 59 | 223 | 8.0 | 16.0 | 0.00 | 0.00 | 0.00 | 24 | 1011.5 |
| 20260508124515 | 59 | 227 | 11.0 | 19.0 | 0.00 | 0.00 | 0.00 | 24 | 1011.6 |
| 20260508124014 | 59 | 259 | 10.0 | 18.0 | 0.00 | 0.00 | 0.00 | 25 | 1011.5 |
| 20260508123513 | 59 | 232 | 11.0 | 18.0 | 0.00 | 0.00 | 0.00 | 24 | 1011.4 |
| 20260508123012 | 59 | 241 | 9.0 | 14.0 | 0.00 | 0.00 | 0.00 | 25 | 1011.3 |
| 20260508122511 | 59 | 246 | 8.0 | 13.0 | 0.00 | 0.00 | 0.00 | 25 | 1011.2 |
| 20260508122009 | 59 | 261 | 9.0 | 14.0 | 0.00 | 0.00 | 0.00 | 24 | 1011.1 |
| 20260508121511 | 60 | 260 | 8.0 | 16.0 | 0.00 | 0.00 | 0.00 | 23 | 1011.0 |
| 20260508121008 | 59 | 267 | 9.0 | 16.0 | 0.00 | 0.00 | 0.00 | 23 | 1011.0 |
| 20260508120509 | 60 | 265 | 6.0 | 13.0 | 0.00 | 0.00 | 0.00 | 23 | 1011.0 |
| 20260508120007 | 60 | 284 | 9.0 | 14.0 | 0.00 | 0.00 | 0.00 | 23 | 1011.0 |
| 20260508115510 | 60 | 270 | 9.0 | 15.0 | 0.00 | 0.00 | 0.00 | 23 | 1011.0 |
| 20260508115004 | 61 | 262 | 10.0 | 14.0 | 0.00 | 0.00 | 0.00 | 23 | 1011.0 |
| 20260508114504 | 61 | 264 | 7.0 | 12.0 | 0.00 | 0.00 | 0.00 | 23 | 1011.0 |
| 20260508114003 | 61 | 243 | 5.0 | 14.0 | 0.00 | 0.00 | 0.00 | 23 | 1011.0 |
| 20260508113503 | 61 | 233 | 9.0 | 14.0 | 0.00 | 0.00 | 0.00 | 22 | 1010.9 |
| 20260508113002 | 61 | 261 | 7.0 | 13.0 | 0.00 | 0.00 | 0.00 | 23 | 1011.0 |
| 20260508112501 | 61 | 240 | 6.0 | 13.0 | 0.00 | 0.00 | 0.00 | 23 | 1011.0 |
| 20260508112100 | 61 | 226 | 5.0 | 10.0 | 0.00 | 0.00 | 0.00 | 23 | 1011.0 |
| 20260508111600 | 62 | 245 | 5.0 | 16.0 | 0.00 | 0.00 | 0.00 | 23 | 1010.9 |
| 20260508111100 | 62 | 231 | 4.0 | 16.0 | 0.00 | 0.00 | 0.00 | 23 | 1010.9 |
| 20260508110559 | 62 | 244 | 6.0 | 16.0 | 0.00 | 0.00 | 0.00 | 24 | 1010.9 |
| 20260508110130 | 62 | 241 | 8.0 | 16.0 | 0.00 | 0.00 | 0.00 | 24 | 1010.9 |
| 20260508105558 | 62 | 211 | 7.0 | 15.0 | 0.00 | 0.00 | 0.00 | 24 | 1010.8 |
| 20260508105057 | 62 | 245 | 9.0 | 15.0 | 0.00 | 0.00 | 0.00 | 23 | 1010.9 |
| 20260508104603 | 62 | 256 | 8.0 | 16.0 | 0.00 | 0.00 | 0.00 | 24 | 1010.9 |
| 20260508104055 | 62 | 273 | 10.0 | 15.0 | 0.00 | 0.00 | 0.00 | 24 | 1010.8 |
| 20260508103554 | 62 | 270 | 7.0 | 18.0 | 0.00 | 0.00 | 0.00 | 24 | 1010.7 |
| 20260508103054 | 63 | 272 | 11.0 | 19.0 | 0.00 | 0.00 | 0.00 | 23 | 1010.6 |
| 20260508102551 | 63 | 256 | 11.0 | 21.0 | 0.00 | 0.00 | 0.00 | 23 | 1010.5 |
| 20260508102052 | 63 | 271 | 11.0 | 21.0 | 0.00 | 0.00 | 0.00 | 23 | 1010.4 |
| 20260508101554 | 63 | 270 | 10.0 | 25.0 | 0.00 | 0.00 | 0.00 | 22 | 1010.4 |
| 20260508101049 | 63 | 269 | 10.0 | 25.0 | 0.00 | 0.00 | 0.00 | 22 | 1010.3 |
| 20260508100548 | 64 | 277 | 9.0 | 17.0 | 0.00 | 0.00 | 0.00 | 22 | 1010.2 |
| 20260508100047 | 64 | 269 | 10.0 | 19.0 | 0.00 | 0.00 | 0.00 | 22 | 1010.2 |
| 20260508095550 | 64 | 289 | 12.0 | 19.0 | 0.00 | 0.00 | 0.00 | 22 | 1010.1 |
| 20260508095050 | 64 | 293 | 10.0 | 17.0 | 0.00 | 0.00 | 0.00 | 22 | 1010.1 |
| 20260508094553 | 64 | 202 | 10.0 | 18.0 | 0.00 | 0.00 | 0.00 | 22 | 1010.1 |
| 20260508094045 | 65 | 245 | 11.0 | 18.0 | 0.00 | 0.00 | 0.00 | 22 | 1010.1 |
| 20260508093547 | 65 | 254 | 9.0 | 21.0 | 0.00 | 0.00 | 0.00 | 22 | 1010.0 |
| 20260508093055 | 65 | 232 | 12.0 | 22.0 | 0.00 | 0.00 | 0.00 | 22 | 1010.0 |
| 20260508092544 | 65 | 226 | 11.0 | 22.0 | 0.00 | 0.00 | 0.00 | 22 | 1010.0 |
| 20260508092043 | 65 | 258 | 9.0 | 21.0 | 0.00 | 0.00 | 0.00 | 23 | 1010.1 |
| 20260508091542 | 65 | 269 | 13.0 | 21.0 | 0.00 | 0.00 | 0.00 | 23 | 1009.9 |
| 20260508091042 | 65 | 286 | 12.0 | 19.0 | 0.00 | 0.00 | 0.00 | 23 | 1010.0 |
| 20260508090542 | 65 | 214 | 9.0 | 22.0 | 0.00 | 0.00 | 0.00 | 23 | 1010.1 |
| 20260508085539 | 65 | 246 | 9.0 | 20.0 | 0.00 | 0.00 | 0.00 | 23 | 1010.0 |
| 20260508085038 | 65 | 222 | 9.0 | 20.0 | 0.00 | 0.00 | 0.00 | 23 | 1010.0 |
| 20260508084538 | 65 | 234 | 13.0 | 19.0 | 0.00 | 0.00 | 0.00 | 23 | 1010.0 |
| 20260508084037 | 65 | 234 | 10.0 | 18.0 | 0.00 | 0.00 | 0.00 | 23 | 1010.1 |
| 20260508083541 | 66 | 207 | 9.0 | 18.0 | 0.00 | 0.00 | 0.00 | 22 | 1010.2 |
| 20260508083036 | 66 | 254 | 10.0 | 17.0 | 0.00 | 0.00 | 0.00 | 22 | 1010.2 |
| 20260508082535 | 66 | 254 | 11.0 | 18.0 | 0.00 | 0.00 | 0.00 | 23 | 1010.2 |
| 20260508082035 | 66 | 234 | 6.0 | 18.0 | 0.00 | 0.00 | 0.00 | 23 | 1010.3 |
| 20260508081534 | 66 | 258 | 11.0 | 18.0 | 0.00 | 0.00 | 0.00 | 24 | 1010.3 |
| 20260508081032 | 66 | 211 | 8.0 | 18.0 | 0.00 | 0.00 | 0.00 | 25 | 1010.3 |
| 20260508080532 | 66 | 263 | 11.0 | 18.0 | 0.00 | 0.00 | 0.00 | 24 | 1010.4 |
| 20260508080038 | 66 | 258 | 10.0 | 18.0 | 0.00 | 0.00 | 0.00 | 24 | 1010.3 |
| 20260508075531 | 66 | 257 | 10.0 | 19.0 | 0.00 | 0.00 | 0.00 | 24 | 1010.2 |
| 20260508075033 | 66 | 237 | 11.0 | 21.0 | 0.00 | 0.00 | 0.00 | 24 | 1010.3 |
| 20260508074536 | 66 | 257 | 12.0 | 21.0 | 0.00 | 0.00 | 0.00 | 24 | 1010.3 |
| 20260508074029 | 66 | 221 | 7.0 | 17.0 | 0.00 | 0.00 | 0.00 | 24 | 1010.3 |
| 20260508073529 | 66 | 295 | 9.0 | 23.0 | 0.00 | 0.00 | 0.00 | 24 | 1010.3 |
| 20260508073030 | 66 | 185 | 10.0 | 23.0 | 0.00 | 0.00 | 0.00 | 24 | 1010.3 |
| 20260508072527 | 66 | 246 | 11.0 | 20.0 | 0.00 | 0.00 | 0.00 | 24 | 1010.3 |
| 20260508072025 | 66 | 269 | 11.0 | 19.0 | 0.00 | 0.00 | 0.00 | 25 | 1010.3 |
| 20260508071528 | 66 | 246 | 8.0 | 19.0 | 0.00 | 0.00 | 0.00 | 25 | 1010.3 |
| 20260508071026 | 67 | 263 | 8.0 | 23.0 | 0.00 | 0.00 | 0.00 | 25 | 1010.3 |
| 20260508070523 | 66 | 211 | 12.0 | 23.0 | 0.00 | 0.00 | 0.00 | 25 | 1010.3 |
| 20260508070022 | 66 | 239 | 7.0 | 18.0 | 0.00 | 0.00 | 0.00 | 25 | 1010.4 |
| 20260508065521 | 67 | 254 | 12.0 | 18.0 | 0.00 | 0.00 | 0.00 | 25 | 1010.3 |
| 20260508065021 | 67 | 238 | 9.0 | 15.0 | 0.00 | 0.00 | 0.00 | 25 | 1010.4 |
| 20260508064522 | 67 | 234 | 7.0 | 21.0 | 0.00 | 0.00 | 0.00 | 25 | 1010.3 |
| 20260508064021 | 67 | 239 | 10.0 | 20.0 | 0.00 | 0.00 | 0.00 | 25 | 1010.3 |
| 20260508063526 | 67 | 242 | 8.0 | 20.0 | 0.00 | 0.00 | 0.00 | 25 | 1010.2 |
| 20260508063020 | 67 | 230 | 11.0 | 19.0 | 0.00 | 0.00 | 0.00 | 24 | 1010.2 |
| 20260508062520 | 67 | 236 | 10.0 | 19.0 | 0.00 | 0.00 | 0.00 | 24 | 1010.0 |
| 20260508062020 | 67 | 252 | 9.0 | 21.0 | 0.00 | 0.00 | 0.00 | 23 | 1010.0 |
| 20260508061521 | 67 | 221 | 11.0 | 21.0 | 0.00 | 0.00 | 0.00 | 23 | 1010.0 |
| 20260508061021 | 67 | 217 | 12.0 | 19.0 | 0.00 | 0.00 | 0.00 | 23 | 1010.0 |
| 20260508060523 | 67 | 225 | 9.0 | 18.0 | 0.00 | 0.00 | 0.00 | 24 | 1010.1 |
| 20260508060021 | 68 | 242 | 9.0 | 18.0 | 0.00 | 0.00 | 0.00 | 25 | 1010.1 |
| 20260508055520 | 68 | 221 | 10.0 | 18.0 | 0.00 | 0.00 | 0.00 | 25 | 1010.2 |
| 20260508055023 | 68 | 241 | 8.0 | 19.0 | 0.00 | 0.00 | 0.00 | 25 | 1010.1 |
| 20260508054519 | 68 | 211 | 9.0 | 19.0 | 0.00 | 0.00 | 0.00 | 25 | 1010.1 |
| 20260508054020 | 68 | 190 | 11.0 | 18.0 | 0.00 | 0.00 | 0.00 | 25 | 1010.1 |
| 20260508053519 | 68 | 198 | 12.0 | 18.0 | 0.00 | 0.00 | 0.00 | 25 | 1010.0 |
| 20260508053019 | 68 | 175 | 10.0 | 19.0 | 0.00 | 0.00 | 0.00 | 26 | 1010.0 |
| 20260508052519 | 68 | 223 | 13.0 | 19.0 | 0.00 | 0.00 | 0.00 | 26 | 1010.0 |
| 20260508052018 | 68 | 236 | 12.0 | 20.0 | 0.00 | 0.00 | 0.00 | 27 | 1010.0 |
| 20260508051518 | 68 | 254 | 9.0 | 25.0 | 0.00 | 0.00 | 0.00 | 27 | 1010.0 |
| 20260508051020 | 68 | 187 | 11.0 | 19.0 | 0.00 | 0.00 | 0.00 | 27 | 1010.0 |
| 20260508050519 | 69 | 196 | 11.0 | 19.0 | 0.00 | 0.00 | 0.00 | 27 | 1010.0 |
| 20260508050018 | 69 | 236 | 11.0 | 21.0 | 0.00 | 0.00 | 0.00 | 26 | 1010.1 |
| 20260508045518 | 69 | 202 | 10.0 | 21.0 | 0.00 | 0.00 | 0.00 | 26 | 1010.1 |
| 20260508045017 | 69 | 205 | 11.0 | 20.0 | 0.00 | 0.00 | 0.00 | 26 | 1010.0 |
| 20260508044517 | 69 | 190 | 11.0 | 23.0 | 0.00 | 0.00 | 0.00 | 27 | 1010.0 |
| 20260508044021 | 69 | 205 | 15.0 | 23.0 | 0.00 | 0.00 | 0.00 | 27 | 1009.9 |
| 20260508043520 | 69 | 198 | 10.0 | 18.0 | 0.00 | 0.00 | 0.00 | 27 | 1010.0 |
| 20260508043016 | 69 | 234 | 12.0 | 18.0 | 0.00 | 0.00 | 0.00 | 27 | 1009.8 |
| 20260508042516 | 70 | 213 | 10.0 | 20.0 | 0.00 | 0.00 | 0.00 | 26 | 1009.8 |
| 20260508042015 | 70 | 246 | 13.0 | 20.0 | 0.00 | 0.00 | 0.00 | 26 | 1009.8 |
| 20260508041516 | 70 | 168 | 11.0 | 19.0 | 0.00 | 0.00 | 0.00 | 27 | 1009.8 |
| 20260508041015 | 70 | 186 | 11.0 | 20.0 | 0.00 | 0.00 | 0.00 | 27 | 1009.8 |
| 20260508040517 | 70 | 222 | 11.0 | 20.0 | 0.00 | 0.00 | 0.00 | 27 | 1009.6 |
| 20260508040018 | 71 | 198 | 11.0 | 19.0 | 0.00 | 0.00 | 0.00 | 27 | 1009.6 |
| 20260508035515 | 71 | 210 | 9.0 | 20.0 | 0.00 | 0.00 | 0.00 | 27 | 1009.5 |
| 20260508035017 | 71 | 181 | 13.0 | 20.0 | 0.00 | 0.00 | 0.00 | 26 | 1009.4 |
| 20260508034518 | 71 | 182 | 10.0 | 20.0 | 0.00 | 0.00 | 0.00 | 25 | 1009.4 |
| 20260508034015 | 72 | 193 | 10.0 | 20.0 | 0.00 | 0.00 | 0.00 | 21 | 1009.4 |
| 20260508033513 | 72 | 238 | 6.0 | 15.0 | 0.00 | 0.00 | 0.00 | 21 | 1009.3 |
| 20260508033019 | 72 | 232 | 5.0 | 16.0 | 0.00 | 0.00 | 0.00 | 20 | 1009.2 |
| 20260508032518 | 72 | 239 | 9.0 | 20.0 | 0.00 | 0.00 | 0.00 | 20 | 1009.2 |
| 20260508032012 | 72 | 327 | 10.0 | 20.0 | 0.00 | 0.00 | 0.00 | 20 | 1009.0 |
| 20260508031514 | 73 | 242 | 7.0 | 18.0 | 0.00 | 0.00 | 0.00 | 19 | 1008.9 |
| 20260508031013 | 73 | 211 | 7.0 | 21.0 | 0.00 | 0.00 | 0.00 | 17 | 1008.9 |
| 20260508030513 | 73 | 214 | 6.0 | 21.0 | 0.00 | 0.00 | 0.00 | 18 | 1008.8 |
| 20260508030013 | 73 | 240 | 5.0 | 14.0 | 0.00 | 0.00 | 0.00 | 17 | 1008.7 |
| 20260508025513 | 74 | 277 | 3.0 | 16.0 | 0.00 | 0.00 | 0.00 | 17 | 1008.7 |
| 20260508025012 | 74 | 214 | 6.0 | 16.0 | 0.00 | 0.00 | 0.00 | 17 | 1008.6 |
| 20260508024518 | 74 | 191 | 5.0 | 19.0 | 0.00 | 0.00 | 0.00 | 17 | 1008.6 |
| 20260508024012 | 74 | 206 | 5.0 | 20.0 | 0.00 | 0.00 | 0.00 | 17 | 1008.6 |
| 20260508023511 | 75 | 281 | 12.0 | 21.0 | 0.00 | 0.00 | 0.00 | 16 | 1008.6 |
| 20260508023021 | 75 | 279 | 8.0 | 21.0 | 0.00 | 0.00 | 0.00 | 16 | 1008.5 |
| 20260508022511 | 76 | 254 | 11.0 | 22.0 | 0.00 | 0.00 | 0.00 | 16 | 1008.5 |
| 20260508022010 | 76 | 239 | 11.0 | 22.0 | 0.00 | 0.00 | 0.00 | 16 | 1008.3 |
| 20260508021511 | 77 | 278 | 10.0 | 18.0 | 0.00 | 0.00 | 0.00 | 15 | 1008.3 |
| 20260508021010 | 77 | 283 | 11.0 | 21.0 | 0.00 | 0.00 | 0.00 | 14 | 1008.3 |
| 20260508020514 | 77 | 265 | 10.0 | 21.0 | 0.00 | 0.00 | 0.00 | 15 | 1008.2 |
| 20260508020010 | 78 | 298 | 12.0 | 19.0 | 0.00 | 0.00 | 0.00 | 16 | 1008.2 |
| 20260508015510 | 78 | 259 | 9.0 | 19.0 | 0.00 | 0.00 | 0.00 | 15 | 1008.3 |
| 20260508015010 | 78 | 265 | 11.0 | 20.0 | 0.00 | 0.00 | 0.00 | 14 | 1008.1 |
| 20260508014509 | 78 | 275 | 11.0 | 22.0 | 0.00 | 0.00 | 0.00 | 15 | 1008.1 |
| 20260508014009 | 79 | 290 | 12.0 | 23.0 | 0.00 | 0.00 | 0.00 | 15 | 1008.0 |
| 20260508013508 | 79 | 240 | 12.0 | 22.0 | 0.00 | 0.00 | 0.00 | 15 | 1008.0 |
| 20260508013114 | 79 | 286 | 11.0 | 22.0 | 0.00 | 0.00 | 0.00 | 15 | 1008.0 |
| 20260508012508 | 79 | 270 | 12.0 | 23.0 | 0.00 | 0.00 | 0.00 | 15 | 1008.0 |
| 20260508012008 | 79 | 236 | 14.0 | 23.0 | 0.00 | 0.00 | 0.00 | 14 | 1008.0 |
| 20260508011508 | 80 | 272 | 13.0 | 23.0 | 0.00 | 0.00 | 0.00 | 13 | 1007.9 |
| 20260508011008 | 80 | 236 | 13.0 | 20.0 | 0.00 | 0.00 | 0.00 | 13 | 1007.8 |
| 20260508010507 | 80 | 268 | 13.0 | 20.0 | 0.00 | 0.00 | 0.00 | 13 | 1007.9 |
| 20260508010012 | 80 | 285 | 10.0 | 19.0 | 0.00 | 0.00 | 0.00 | 14 | 1007.8 |
| 20260508005506 | 80 | 285 | 14.0 | 27.0 | 0.00 | 0.00 | 0.00 | 14 | 1007.8 |
| 20260508005010 | 80 | 258 | 15.0 | 27.0 | 0.00 | 0.00 | 0.00 | 14 | 1007.7 |
| 20260508004516 | 81 | 249 | 13.0 | 24.0 | 0.00 | 0.00 | 0.00 | 13 | 1007.7 |
| 20260508004006 | 81 | 271 | 10.0 | 18.0 | 0.00 | 0.00 | 0.00 | 12 | 1007.8 |
| 20260508003507 | 81 | 262 | 10.0 | 21.0 | 0.00 | 0.00 | 0.00 | 12 | 1007.8 |
| 20260508003006 | 82 | 296 | 10.0 | 22.0 | 0.00 | 0.00 | 0.00 | 12 | 1007.8 |
| 20260508002507 | 82 | 284 | 10.0 | 25.0 | 0.00 | 0.00 | 0.00 | 10 | 1007.8 |
| 20260508002011 | 82 | 263 | 15.0 | 25.0 | 0.00 | 0.00 | 0.00 | 11 | 1007.6 |
| 20260508001505 | 82 | 271 | 13.0 | 22.0 | 0.00 | 0.00 | 0.00 | 10 | 1007.7 |
| 20260508001004 | 82 | 294 | 11.0 | 25.0 | 0.00 | 0.00 | 0.00 | 11 | 1007.6 |
| 20260508000505 | 83 | 265 | 14.0 | 25.0 | 0.00 | 0.00 | 0.00 | 10 | 1007.6 |
| 20260508000004 | 83 | 281 | 5.0 | 19.0 | 0.00 | 0.00 | 0.00 | 12 | 1007.4 |
| 20260507235507 | 83 | 286 | 10.0 | 21.0 | 0.00 | 0.00 | 0.00 | 12 | 1007.5 |
| 20260507235005 | 83 | 269 | 13.0 | 21.0 | 0.00 | 0.00 | 0.00 | 11 | 1007.6 |
| 20260507234503 | 82 | 286 | 12.0 | 20.0 | 0.00 | 0.00 | 0.00 | 12 | 1007.5 |
| 20260507234002 | 83 | 282 | 11.0 | 23.0 | 0.00 | 0.00 | 0.00 | 12 | 1007.7 |
| 20260507233502 | 83 | 240 | 11.0 | 23.0 | 0.00 | 0.00 | 0.00 | 12 | 1007.7 |
| 20260507233002 | 83 | 263 | 14.0 | 24.0 | 0.00 | 0.00 | 0.00 | 11 | 1007.6 |
| 20260507232501 | 83 | 277 | 12.0 | 24.0 | 0.00 | 0.00 | 0.00 | 11 | 1007.5 |
| 20260507232001 | 84 | 237 | 9.0 | 20.0 | 0.00 | 0.00 | 0.00 | 11 | 1007.7 |
| 20260507231501 | 83 | 194 | 11.0 | 20.0 | 0.00 | 0.00 | 0.00 | 11 | 1007.6 |
| 20260507231001 | 84 | 175 | 7.0 | 19.0 | 0.00 | 0.00 | 0.00 | 11 | 1007.6 |
| 20260507230600 | 84 | 217 | 9.0 | 16.0 | 0.00 | 0.00 | 0.00 | 12 | 1007.6 |
| 20260507230101 | 83 | 250 | 7.0 | 24.0 | 0.00 | 0.00 | 0.00 | 12 | 1007.5 |
| 20260507225559 | 84 | 262 | 13.0 | 24.0 | 0.00 | 0.00 | 0.00 | 11 | 1007.7 |
| 20260507225100 | 84 | 188 | 10.0 | 17.0 | 0.00 | 0.00 | 0.00 | 12 | 1007.7 |
| 20260507224606 | 84 | 303 | 5.0 | 15.0 | 0.00 | 0.00 | 0.00 | 12 | 1007.6 |
| 20260507224058 | 83 | 255 | 9.0 | 20.0 | 0.00 | 0.00 | 0.00 | 12 | 1007.8 |
| 20260507223602 | 83 | 279 | 11.0 | 20.0 | 0.00 | 0.00 | 0.00 | 12 | 1007.8 |
| 20260507223059 | 83 | 265 | 10.0 | 20.0 | 0.00 | 0.00 | 0.00 | 12 | 1007.8 |
| 20260507222559 | 83 | 240 | 8.0 | 20.0 | 0.00 | 0.00 | 0.00 | 12 | 1007.9 |
| 20260507222057 | 83 | 219 | 3.0 | 20.0 | 0.00 | 0.00 | 0.00 | 12 | 1007.9 |
| 20260507221555 | 84 | 209 | 9.0 | 20.0 | 0.00 | 0.00 | 0.00 | 12 | 1008.0 |
| 20260507221055 | 84 | 261 | 8.0 | 16.0 | 0.00 | 0.00 | 0.00 | 11 | 1008.0 |
| 20260507220554 | 84 | 206 | 6.0 | 15.0 | 0.00 | 0.00 | 0.00 | 12 | 1008.1 |
| 20260507220054 | 83 | 256 | 8.0 | 17.0 | 0.00 | 0.00 | 0.00 | 13 | 1008.2 |
| 20260507215557 | 83 | 192 | 6.0 | 22.0 | 0.00 | 0.00 | 0.00 | 13 | 1008.2 |
| 20260507215053 | 84 | 217 | 12.0 | 22.0 | 0.00 | 0.00 | 0.00 | 13 | 1008.3 |
| 20260507214553 | 84 | 197 | 4.0 | 14.0 | 0.00 | 0.00 | 0.00 | 13 | 1008.3 |
| 20260507214053 | 84 | 306 | 10.0 | 16.0 | 0.00 | 0.00 | 0.00 | 13 | 1008.4 |
| 20260507213550 | 83 | 191 | 4.0 | 11.0 | 0.00 | 0.00 | 0.00 | 14 | 1008.5 |
| 20260507213051 | 83 | 259 | 4.0 | 15.0 | 0.00 | 0.00 | 0.00 | 14 | 1008.6 |
| 20260507212550 | 83 | 219 | 6.0 | 14.0 | 0.00 | 0.00 | 0.00 | 15 | 1008.6 |
| 20260507212048 | 82 | 189 | 6.0 | 17.0 | 0.00 | 0.00 | 0.00 | 15 | 1008.6 |
| 20260507211551 | 83 | 241 | 10.0 | 18.0 | 0.00 | 0.00 | 0.00 | 15 | 1008.7 |
| 20260507211047 | 82 | 217 | 9.0 | 15.0 | 0.00 | 0.00 | 0.00 | 15 | 1008.7 |
| 20260507210546 | 81 | 192 | 6.0 | 17.0 | 0.00 | 0.00 | 0.00 | 16 | 1008.7 |
| 20260507210111 | 82 | 246 | 10.0 | 17.0 | 0.00 | 0.00 | 0.00 | 15 | 1008.8 |
| 20260507205545 | 82 | 221 | 7.0 | 15.0 | 0.00 | 0.00 | 0.00 | 15 | 1008.7 |
| 20260507205048 | 82 | 215 | 6.0 | 17.0 | 0.00 | 0.00 | 0.00 | 15 | 1009.0 |
| 20260507204546 | 82 | 229 | 5.0 | 16.0 | 0.00 | 0.00 | 0.00 | 15 | 1009.0 |
| 20260507204042 | 82 | 259 | 8.0 | 17.0 | 0.00 | 0.00 | 0.00 | 14 | 1009.2 |
| 20260507203542 | 81 | 213 | 8.0 | 17.0 | 0.00 | 0.00 | 0.00 | 14 | 1009.2 |
| 20260507203042 | 81 | 197 | 9.0 | 14.0 | 0.00 | 0.00 | 0.00 | 15 | 1009.2 |
| 20260507202541 | 81 | 198 | 6.0 | 14.0 | 0.00 | 0.00 | 0.00 | 15 | 1009.3 |
| 20260507202040 | 81 | 220 | 10.0 | 14.0 | 0.00 | 0.00 | 0.00 | 16 | 1009.5 |
| 20260507201539 | 81 | 220 | 8.0 | 15.0 | 0.00 | 0.00 | 0.00 | 16 | 1009.5 |
| 20260507201039 | 80 | 271 | 6.0 | 15.0 | 0.00 | 0.00 | 0.00 | 16 | 1009.5 |
| 20260507200538 | 80 | 196 | 9.0 | 14.0 | 0.00 | 0.00 | 0.00 | 16 | 1009.6 |
| 20260507200052 | 80 | 222 | 6.0 | 18.0 | 0.00 | 0.00 | 0.00 | 15 | 1009.6 |
| 20260507195539 | 79 | 196 | 11.0 | 18.0 | 0.00 | 0.00 | 0.00 | 16 | 1009.6 |
| 20260507195037 | 80 | 171 | 9.0 | 17.0 | 0.00 | 0.00 | 0.00 | 16 | 1009.7 |
| 20260507194536 | 79 | 200 | 9.0 | 15.0 | 0.00 | 0.00 | 0.00 | 16 | 1009.8 |
| 20260507194035 | 80 | 209 | 9.0 | 17.0 | 0.00 | 0.00 | 0.00 | 16 | 1009.8 |
| 20260507193535 | 79 | 213 | 11.0 | 19.0 | 0.00 | 0.00 | 0.00 | 16 | 1009.8 |
| 20260507193101 | 79 | 165 | 6.0 | 16.0 | 0.00 | 0.00 | 0.00 | 15 | 1009.9 |
| 20260507192532 | 78 | 200 | 9.0 | 16.0 | 0.00 | 0.00 | 0.00 | 16 | 1010.0 |
| 20260507192032 | 78 | 194 | 9.0 | 16.0 | 0.00 | 0.00 | 0.00 | 15 | 1010.0 |
| 20260507191532 | 79 | 276 | 6.0 | 14.0 | 0.00 | 0.00 | 0.00 | 15 | 1010.1 |
| 20260507191032 | 78 | 242 | 9.0 | 14.0 | 0.00 | 0.00 | 0.00 | 15 | 1010.3 |
| 20260507190531 | 78 | 200 | 7.0 | 16.0 | 0.00 | 0.00 | 0.00 | 15 | 1010.3 |
| 20260507190034 | 79 | 209 | 9.0 | 20.0 | 0.00 | 0.00 | 0.00 | 15 | 1010.5 |
| 20260507185529 | 78 | 227 | 10.0 | 16.0 | 0.00 | 0.00 | 0.00 | 15 | 1010.5 |
| 20260507185028 | 78 | 189 | 10.0 | 17.0 | 0.00 | 0.00 | 0.00 | 15 | 1010.7 |
| 20260507184527 | 77 | 221 | 7.0 | 21.0 | 0.00 | 0.00 | 0.00 | 16 | 1010.7 |
| 20260507184026 | 78 | 211 | 8.0 | 15.0 | 0.00 | 0.00 | 0.00 | 16 | 1010.8 |
| 20260507183530 | 78 | 242 | 10.0 | 15.0 | 0.00 | 0.00 | 0.00 | 16 | 1010.8 |
| 20260507183036 | 78 | 194 | 9.0 | 15.0 | 0.00 | 0.00 | 0.00 | 15 | 1010.9 |
| 20260507182526 | 78 | 259 | 8.0 | 16.0 | 0.00 | 0.00 | 0.00 | 16 | 1011.0 |
| 20260507182026 | 77 | 275 | 6.0 | 16.0 | 0.00 | 0.00 | 0.00 | 16 | 1010.9 |